Rockingham, NC

2:08 AM EDT on May 28, 2017 (GMT -0400)
Rockingham

Weather History for KRCZ - November, 2012

Change the Weather History Date:

Friday, November 9, 2012

  Actual Average (KHFF) Record (KHFF)
Temperature  
Mean Temperature 51 °F -  
Max Temperature 67 °F 66 °F 82 °F (2005)
Min Temperature 35 °F 42 °F 27 °F (2012)
Degree Days  
Heating Degree Days 14    
Growing Degree Days 1 (Base 50)    
Moisture  
Dew Point 31 °F    
Average Humidity 53    
Maximum Humidity 81    
Minimum Humidity 25    
Precipitation  
Precipitation 0.00 in - - ()
Sea Level Pressure  
Sea Level Pressure 30.22 in    
Wind  
Wind Speed 2 mph (NW)    
Max Wind Speed 9 mph    
Max Gust Speed -    
Visibility 10 miles    
Events      
Averages and records for this station are not official NWS values.
T = Trace of Precipitation, MM = Missing Value Source: NWS Daily Summary

Daily Weather History Graph

Daily Weather History Graph

Search for Another Location

Airport or City:

Trip Planner

Search our weather history database for the weather conditions in past years. The results will help you decide how hot, cold, wet, or windy it might be!

Date:

Astronomy

Nov. 09, 2012 Rise Set
Actual Time 6:47 AM EST 5:17 PM EST
Civil Twilight 6:21 AM EST 5:44 PM EST
Nautical Twilight 5:51 AM EST 6:14 PM EST
Astronomical Twilight 5:21 AM EST 6:44 PM EST
Moon 1:55 AM EST (11/9) 2:20 PM EST (11/9)
Length of Visible Light 11h 22m
Length of Day
10h 29m
Waning Crescent, 23% of the Moon is Illuminated
Nov 9
Waning Crescent
Nov 13
New
Nov 20
First Quarter
Nov 28
Full
Dec 6
Last Quarter

Hourly Weather History & Observations

Time (EST) Temp. Windchill Dew Point Humidity Pressure Visibility Wind Dir Wind Speed Gust Speed Precip Events Conditions
12:15 AM 42.8 °F 41.1 °F 28.6 °F 57% 30.14 in 10.0 mi North 3.5 mph - N/A   Clear
12:35 AM 42.1 °F - 28.8 °F 59% 30.14 in 10.0 mi Calm Calm - N/A   Clear
12:55 AM 40.6 °F - 29.1 °F 64% 30.14 in 10.0 mi Calm Calm - N/A   Clear
1:15 AM 39.2 °F - 28.9 °F 67% 30.15 in 10.0 mi Calm Calm - N/A   Clear
1:35 AM 39.0 °F 36.8 °F 28.9 °F 67% 30.15 in 10.0 mi NW 3.5 mph - N/A   Clear
1:55 AM 41.4 °F 38.4 °F 28.9 °F 61% 30.15 in 10.0 mi NW 4.6 mph - N/A   Clear
2:15 AM 41.0 °F 38.0 °F 29.1 °F 63% 30.15 in 10.0 mi NNW 4.6 mph - N/A   Clear
2:35 AM 40.8 °F 38.8 °F 29.3 °F 64% 30.15 in 10.0 mi North 3.5 mph - N/A   Clear
2:55 AM 39.2 °F - 29.3 °F 68% 30.16 in 10.0 mi Calm Calm - N/A   Clear
3:15 AM 39.0 °F - 29.7 °F 69% 30.16 in 10.0 mi Calm Calm - N/A   Clear
3:35 AM 39.2 °F - 29.5 °F 68% 30.16 in 10.0 mi Calm Calm - N/A   Clear
3:55 AM 39.7 °F 37.6 °F 29.8 °F 68% 30.17 in 10.0 mi NNW 3.5 mph - N/A   Clear
4:15 AM 39.7 °F 37.6 °F 29.8 °F 68% 30.18 in 10.0 mi North 3.5 mph - N/A   Clear
4:35 AM 37.8 °F - 29.8 °F 73% 30.19 in 10.0 mi Calm Calm - N/A   Clear
4:55 AM 37.9 °F 35.5 °F 29.8 °F 73% 30.19 in 10.0 mi North 3.5 mph - N/A   Clear
5:15 AM 36.7 °F - 29.5 °F 75% 30.19 in 10.0 mi Calm Calm - N/A   Clear
5:35 AM 35.2 °F - 29.5 °F 80% 30.20 in 10.0 mi Calm Calm - N/A   Clear
5:55 AM 36.1 °F 33.5 °F 29.8 °F 78% 30.20 in 10.0 mi NNE 3.5 mph - N/A   Clear
6:15 AM 35.2 °F - 29.5 °F 80% 30.21 in 10.0 mi Calm Calm - N/A   Clear
6:35 AM 35.6 °F - 29.7 °F 79% 30.21 in 10.0 mi Calm Calm - N/A   Clear
6:55 AM 36.0 °F 33.3 °F 29.5 °F 77% 30.22 in 10.0 mi North 3.5 mph - N/A   Clear
7:15 AM 36.7 °F 34.1 °F 29.5 °F 75% 30.23 in 10.0 mi NNE 3.5 mph - N/A   Clear
7:35 AM 35.2 °F - 29.8 °F 81% 30.24 in 10.0 mi Calm Calm - N/A   Clear
7:55 AM 38.5 °F - 31.1 °F 75% 30.24 in 10.0 mi Calm Calm - N/A   Clear
8:15 AM 42.4 °F - 30.9 °F 64% 30.25 in 10.0 mi Calm Calm - N/A   Clear
8:35 AM 44.4 °F - 31.3 °F 60% 30.25 in 10.0 mi Calm Calm - N/A   Clear
8:55 AM 45.0 °F 43.5 °F 32.0 °F 60% 30.25 in 10.0 mi NW 3.5 mph - N/A   Clear
9:15 AM 47.1 °F - 32.4 °F 57% 30.26 in 10.0 mi NW 3.5 mph - N/A   Clear
9:35 AM 48.9 °F - 33.1 °F 54% 30.26 in 10.0 mi Calm Calm - N/A   Clear
9:55 AM 51.3 °F - 33.4 °F 51% 30.27 in 10.0 mi Calm Calm - N/A   Clear
10:15 AM 53.8 °F - 33.8 °F 47% 30.27 in 10.0 mi Calm Calm - N/A   Clear
10:35 AM 56.1 °F - 33.3 °F 42% 30.27 in 10.0 mi Calm Calm - N/A   Clear
10:55 AM 58.3 °F - 34.2 °F 40% 30.27 in 10.0 mi Calm Calm - N/A   Clear
11:15 AM 59.9 °F - 32.7 °F 36% 30.27 in 10.0 mi NE 3.5 mph - N/A   Clear
11:35 AM 61.0 °F - 31.6 °F 33% 30.26 in 10.0 mi Calm Calm - N/A   Clear
11:55 AM 62.4 °F - 31.6 °F 31% 30.25 in 10.0 mi WNW 4.6 mph - N/A   Clear
12:15 PM 63.3 °F - 30.4 °F 29% 30.24 in 10.0 mi Calm Calm - N/A   Clear
12:35 PM 64.2 °F - 29.8 °F 27% 30.23 in 10.0 mi West 6.9 mph - N/A   Clear
12:55 PM 64.8 °F - 29.3 °F 26% 30.22 in 10.0 mi WSW 5.8 mph - N/A   Clear
1:15 PM 65.3 °F - 30.0 °F 27% 30.22 in 10.0 mi West 5.8 mph - N/A   Clear
1:35 PM 66.0 °F - 29.5 °F 25% 30.21 in 10.0 mi WSW 8.1 mph - N/A   Clear
1:55 PM 66.6 °F - 29.5 °F 25% 30.21 in 10.0 mi West 9.2 mph - N/A   Clear
2:15 PM 66.4 °F - 29.3 °F 25% 30.20 in 10.0 mi WNW 8.1 mph - N/A   Clear
2:35 PM 66.7 °F - 29.8 °F 25% 30.20 in 10.0 mi West 6.9 mph - N/A   Clear
2:55 PM 66.6 °F - 30.0 °F 26% 30.19 in 10.0 mi West 3.5 mph - N/A   Clear
3:15 PM 67.1 °F - 30.4 °F 25% 30.19 in 10.0 mi NNW 6.9 mph - N/A   Clear
3:35 PM 66.7 °F - 30.4 °F 26% 30.19 in 10.0 mi NW 4.6 mph - N/A   Clear
3:55 PM 66.6 °F - 30.4 °F 26% 30.19 in 10.0 mi NW 5.8 mph - N/A   Clear
4:15 PM 66.4 °F - 29.8 °F 25% 30.19 in 10.0 mi NW 4.6 mph - N/A   Clear
4:35 PM 65.8 °F - 30.9 °F 27% 30.20 in 10.0 mi Calm Calm - N/A   Clear
4:55 PM 64.8 °F - 31.5 °F 29% 30.20 in 10.0 mi Calm Calm - N/A   Clear
5:15 PM 63.5 °F - 31.6 °F 30% 30.20 in 10.0 mi Calm Calm - N/A   Clear
5:35 PM 60.3 °F - 32.7 °F 35% 30.21 in 10.0 mi Calm Calm - N/A   Clear
5:55 PM 57.4 °F - 35.2 °F 43% 30.21 in 10.0 mi Calm Calm - N/A   Clear
6:15 PM 56.5 °F - 34.7 °F 44% 30.22 in 10.0 mi Calm Calm - N/A   Clear
6:35 PM 54.5 °F - 34.9 °F 48% 30.22 in 10.0 mi Calm Calm - N/A   Clear
6:55 PM 54.1 °F - 33.8 °F 46% 30.22 in 10.0 mi Calm Calm - N/A   Clear
7:15 PM 53.1 °F - 34.0 °F 48% 30.23 in 10.0 mi Calm Calm - N/A   Clear
7:35 PM 52.9 °F - 32.9 °F 47% 30.23 in 10.0 mi Calm Calm - N/A   Clear
7:55 PM 53.1 °F - 32.9 °F 46% 30.23 in 10.0 mi Calm Calm - N/A   Clear
8:15 PM 52.5 °F - 33.1 °F 48% 30.23 in 10.0 mi Calm Calm - N/A   Clear
8:35 PM 51.6 °F - 33.6 °F 50% 30.24 in 10.0 mi Calm Calm - N/A   Clear
8:55 PM 48.7 °F - 34.9 °F 59% 30.24 in 10.0 mi Calm Calm - N/A   Clear
9:15 PM 47.5 °F - 34.5 °F 61% 30.25 in 10.0 mi Calm Calm - N/A   Clear
9:35 PM 46.4 °F - 34.5 °F 63% 30.25 in 10.0 mi Calm Calm - N/A   Clear
9:55 PM 45.5 °F - 35.1 °F 67% 30.26 in 5.0 mi Calm Calm - N/A   Haze
10:15 PM 45.9 °F - 35.1 °F 66% 30.26 in 10.0 mi Calm Calm - N/A   Clear
10:35 PM 45.7 °F - 35.1 °F 66% 30.26 in 10.0 mi Calm Calm - N/A   Clear
10:55 PM 43.9 °F - 34.9 °F 71% 30.26 in 10.0 mi Calm Calm - N/A   Clear
11:15 PM 43.7 °F - 34.7 °F 71% 30.26 in 10.0 mi Calm Calm - N/A   Clear
11:35 PM 42.4 °F - 34.9 °F 75% 30.26 in 10.0 mi Calm Calm - N/A   Clear
11:55 PM 42.4 °F - 35.1 °F 75% 30.27 in 7.0 mi Calm Calm - N/A   Clear